Погода в Морочном

Украина / Ровненская область     51°50′45″N   25°55′32″E
В апреле 2022 года жителям России запретили посещать сайт meteo.paraplan.net по решению Генеральной прокуратуры. Аудитория сайта уменьшилась в 10 раз. Владельцы сайта не видят смысла в поддержке погодного сервера в таких условиях. Сайт будет закрыт в октябре.
темп.,
°C
ветер,
м/с
пор.,
м/с
влажн.,
%
обл.,
%
осадки,
мм/ч
давл.,
гПа
погр.,
м
29 сентября, чт
чт2900:00+8ююз35875 0.0 100381
03:00+8ю4138694 0.0 1003330
06:00+9ю31085100 0.0 1003259
09:00+10ю3882100 0.0 1004323
12:00+10ю3693100 0.9 1005265
15:00+11ююв1296100 1.8 100694
18:00+11зсз2297100 1.1 100655
21:00+10всв1199100 4.3 100729
30 сентября, пт
пт3000:00+9сз2398100 0.0 100960
03:00+9ссз249567 0.0 1010123
06:00+7с22959 0.0 101218
09:00+9св128650 0.0 1014106
12:00+14всв216629 0.0 1014563
15:00+15всв2259100 0.0 1014914
18:00+13св2376100 0.3 101476
21:00+11св4995100 4.3 1013388
1 октября, сб
сб100:00+12вюв2698100 3.3 1012246
03:00+12з3598100 3.5 1012330
06:00+10сз2597100 0.0 1014304
09:00+10з2394100 0.0 1014209
12:00+11юз2393100 0.3 1014219
15:00+12юз2491100 0.3 1013377
18:00+12зюз2592100 0.0 1012324
21:00+11юз2394100 0.0 101269
2 октября, вс
вс200:00+10зюз2295100 0.0 101224
03:00+9з2294100 0.0 101122
06:00+10зюз2593100 0.0 1011137
09:00+10з4991100 0.4 1011577
12:00+12з598596 0.1 1012840
15:00+11зсз41086100 0.4 1012620
18:00+12зсз498776 0.4 1012646
21:00+10з5119161 0.8 1013514
3 октября, пн
пн300:00+10зсз51192100 0.0 1013500
03:00+10зсз41091100 0.1 1013513
06:00+8з3996100 0.0 1012299
09:00+9з4993100 0.2 1012483
12:00+12зсз687598 0.1 1011982
15:00+12сз5873100 0.5 10111188
18:00+12зсз3875100 0.1 1011349
21:00+10з31083100 0.4 1011325